Orbital Elements at Epoch 2459000.5 (2020-May-31.0) TDB
Reference: JPL 35 (heliocentric ecliptic J2000)
Element | Value | Uncertainty (1-sigma) | Units |
e | .214662078208234 | 7.4205e-08 | |
a | 2.571511600377072 | 1.6747e-08 | au |
q | 2.019505576103548 | 1.9783e-07 | au |
i | 32.52430786527109 | 6.7295e-06 | deg |
node | 6.583530958113371 | 7.3732e-06 | deg |
peri | 207.9448280820109 | 1.6995e-05 | deg |
M | 142.4646184893004 | 2.221e-05 | deg |
tp | 2458404.445903313248 (2018-Oct-12.94590331) | 8.8485e-05 | TDB |
period | 1506.194850922556 4.12 | 1.4714e-05 4.028e-08 | d yr |
n | .2390129004753251 | 2.3349e-09 | deg/d |
Q | 3.123517624650596 | 2.0343e-08 | au |
|
| | Orbit Determination Parameters
Additional Information
|